Погода в Бисере

Погода в Бисере : погода сейчас, прогноз погоды и архив. Всё, что Вы хотите узнать о погоде в Бисере!

Поиск расширенной информации на нашем сайте:

Другие новости

Новости СМИ2

Главная страница сайта

Новости сайта

03.07.2017

Напоминаем, что на нашем специализированном сайте Метеоцентр.Азия вы можете получить высокодетализированные автоматические прогнозы погоды по пунктам России, СНГ и мира в авиационном формате (включающие направление и скорость ветра, видимость, явления погоды, количество и форму облачности, нижнюю и верхнюю границу облачности).

Рекомендуем: подключение оплаты банковскими картами

Погода в Бисере - сегодня

Время (UTC), дата Ветер
(°,м/с) 
Видим.   Явления Облачность Т
(°С)
Тd
(°С)
f(%) Тe
(°С)
Pmin
(гПа)
dP
(гПа)
Po
(мм)
O2
(г/м3)
Тmin Tmax R s Состояние
почвы
03 21.09.17 050 (СВ) 4000 м  дымка  10/10 600 м 
[Sc]
+4.4 +3.8 96 +3  1021.8  2.1  724  286  +4.4        мокрая 
06 21.09.17 050 (СВ) 20000 м    10/10 600 м 
[Sc]
+5.1 +4.1 93 +4  1023.6  1.9  726  286  +4.4         
09 21.09.17 060 (СВ) 20000 м  {ливн. осадки}  10/10 600 м 
[Sc]
+5.3 +4 91 +4  1025.3  1.7  727  287           
12 21.09.17 030 (СВ) 20000 м  {ливн. осадки}  10/10 600 м кучево-дожд. 
[Cb calv]
+4.7 +3.7 93 +4  1027.1  1.7  728  288           
15 21.09.17 020 (С) 20000 м    10/10 600 м 
[Sc]
+3.8 +2.9 94 +3  1028.7  1.3  729  289    +5.4  0.3     
18 21.09.17 020 (С) 20000 м    9/9 600 м 
[Sc]
+3.9 +3.2 95 +3  1030  1.2  730  289           
21 21.09.17 360 (С) 20000 м    ясно 
+2.4 +2 97 +2  1031.2  0.8  731  291           
00 22.09.17 350 (С) 20000 м    ясно 
+1.5 +1.2 98 +2  1032.2  0.8  731  293           
03 22.09.17 360 (С) 20000 м    10/10 600 м 
[Sc]
+2.5 +1.9 96 +3  1032.6  0.6  732  292  +1.5        влажная 
06 22.09.17 010 (С) 20000 м    10/3 600 м верхняя 
[Sc|Ci sp]
+6 +3.1 82 +4  1033.3  1.3  733  288           
09 22.09.17 020 (С) 20000 м    9/9 600 м 
[Sc]
+6.6 +1.5 70 +5  1033.6  0.4  733  288           
12 22.09.17 350 (С) 20000 м    9/9 600 м 
[Sc]
+7.1 +1.5 68 +7  1034  0.5  733  288           
15 22.09.17 340 (С) 20000 м  {ливн. осадки}  9/9 600 м кучево-дожд. 
[Cb calv]
+3.6 +2.6 93 +2  1035.6  0.8  734  291    +7.7  0.5     
18 22.09.17 340 (С) 20000 м  {ливн. осадки}  4/0 верхняя 
[Ci fib]
+1.4 +0.5 94 +1  1036.4  0.3  734  294           
21 22.09.17 340 (С) 20000 м    10/6 600 м верхняя 
[Sc|Ci fib]
+1.7 +0.9 94 +2  1036.5  0.2  734  294           
00 23.09.17 010 (С) 20000 м    8/3 600 м верхняя 
[Sc|Ci fib]
-0.6 -0.8 99 -1  1037.1  0.1  734  297           
03 23.09.17 350 (С) 20000 м    9/9 600 м 
[Sc]
-0.3 -0.5 99 1037.1  0.1  734  296  -1.4        влажная 
06 23.09.17 280 (З) 20000 м    10/10 600 м кучево-дожд. 
[Cb calv]
+3.7 +1.9 88 +2  1036  -0.3  734  292           
09 23.09.17 290 (З) 20000 м    10/10 600 м 
[Sc]
+4.6 +1.4 80 +3  1034.6  -1.1  733  290           
12 23.09.17 300 (СЗ) 20000 м  в посл. час ливневой дождь  10/10 600 м кучево-дожд. 
[Cb calv]
+4.5 +2.5 87 +4  1033.6  -1  733  290           
15 23.09.17 260 (З) 20000 м  в посл. час ливневой дождь  10/10 600 м кучево-дожд. 
[Cb calv]
+3.1 +2.5 96 +3  1033  -0.8  732  291    +5.6     
18 23.09.17 тихо ()   10 км  слаб. ливневой дождь  10/10 600 м кучево-дожд. 
[Cb calv]
+2.8 +2.2 96 +3  1032.1  -0.8  731  291           
21 23.09.17 050 (СВ) 20000 м  в посл. час ливневой дождь  10/10 600 м кучево-дожд. 
[Cb calv]
+2.2 +1.8 97 +3  1032.1  -0.2  731  292           
00 24.09.17 060 (СВ) 20000 м  в посл. час ливневой дождь  10/10 600 м кучево-дожд. 
[Cb calv]
+2 +1.6 97 +1  1032.8  0.6  732  292           
03 24.09.17 060 (СВ) 4000 м  дымка{ливн. осадки}  10/10 600 м 
[Sc]
+2.2 +1.8 97 +1  1033.9  1.2  732  292  +1.6      мокрая 
Время (UTC), дата Ветер
(°,м/с) 
Видим.   Явления Облачность Т
(°С)
Тd
(°С)
f(%) Тe
(°С)
Pmin
(гПа)
dP
(гПа)
Po
(мм)
O2
(г/м3)
Тmin Tmax R s Состояние
почвы

Для получения пояснительной информации подведите курсор к названию столбца.

ПОГОДА в Бисере - архив

Всё, что Вы хотите узнать о погоде в Бисере - удобно и подробно!

Выберите нужную дату (начиная с 1 января 2015* года) и нажмите кнопку "Найти".
Будут отображены архивные сводки погоды по пункту Бисер, начиная с указанной даты.


Отображать данные в формате CSV (для использования в таблицах Excel)


Внимание! Наш архив погоды предназначен исключительно для личного некоммерческого использования в познавательных целях. Если Вам необходимы официальные справки о состоянии погоды (для производственных, юридических, коммерческих и т.п. целей), обращайтесь в органы Росгидромета.

*Примечание: данная дата относится к архиву по метеостанциям СССР (Россия, СНГ, Балтия).
Архив по метеостанциям Зарубежной Европы и Азии (кроме Китая) хранится 10 дней, по другим регионам земного шара (Китай, Африка, Америка, Австралия, Океания) - 1 день.

Бисер - район местоположения метеостанции


Название, широта, долгота, высота метеостанции:
Бисер 58.5°ш. 58.9°д. 463 м над ур. моря [Российская Федерация]

Дополнительная информация

В oтличие oт бoльшинства пoгoдных сайтoв мы публикуем пoдрoбную метеoинфoрмацию в детальнoм прoфессиoнальнoм фoрмате.

Характеристики температуры и влажнoсти вoздуха измеряются на высoте 2 м в тени вдали oт зданий и деревьев.
Скoрoсть ветра измеряется на высoте 10 м (на урoвне рoста челoвека скoрoсть ветра ниже в 1.5-2 раза). Если метеoстанция нахoдится в гoрoде или в лесу, тo скoрoсть ветра занижена на 2-4 м/с пo сравнению с oткрытым местoм. Скoрoсть ветра над акватoриями крупных рек и oзёр, а также на вершинах хoлмoв на 2-5 м/с выше, чем в oбычных услoвиях.
Атмoсфернoе давление в разных тoчках местнoсти мoжет значительнo oтличаться oт давления на метеoстанции, в зависимoсти oт услoвий рельефа (при пoдъёме на 10 м давление пoнижается примернo на 1 мм рт.ст.).